.
WxDataArchive / Data Records for 2014-08-21
2014-08-20 August 2014 2014-08-22

Data Records for Thursday, 21 August 2014

Time	Temp	Chill	HIndex	Humid	Dewpt	 Wind 	HiWind	WindDir	Rain 	Barom
-----	----	-----	------	-----	-----	------	------	-------	-----	-----
00:00	71.8	71.8	71.8	81	65.6	0	0	---	0.00	29.944 
00:05	71.8	71.8	71.8	81	65.6	0	0	---	0.00	29.944 
00:10	71.8	71.8	71.8	82	66.0	0	0	---	0.00	29.944 
00:15	71.8	71.8	71.8	82	66.0	0	0	---	0.00	29.947 
00:20	72.0	72.0	72.0	83	66.5	0	0	---	0.00	29.947 
00:25	72.1	72.1	72.1	83	66.6	0	0	---	0.00	29.947 
00:30	72.1	72.1	72.1	84	67.0	0	0	---	0.00	29.949 
00:35	72.3	72.3	72.3	84	67.2	0	0	---	0.00	29.949 
00:40	72.3	72.3	72.3	84	67.2	0	0	---	0.00	29.949 
00:45	72.5	72.5	72.5	85	67.7	0	0	---	0.00	29.943 
00:50	72.7	72.7	72.7	85	67.9	0	1	292	0.00	29.943 
00:55	72.8	72.8	72.8	85	68.0	0	0	---	0.00	29.943 
01:00	72.8	72.8	72.8	85	68.0	0	0	---	0.00	29.949 
01:05	72.8	72.8	72.8	85	68.0	0	0	---	0.00	29.949 
01:10	72.8	72.8	72.8	85	68.0	0	0	---	0.00	29.949 
01:15	72.8	72.8	72.8	85	68.0	0	0	---	0.00	29.944 
01:20	72.7	72.7	72.7	85	67.9	0	0	---	0.00	29.944 
01:25	72.7	72.7	72.7	86	68.3	0	1	292	0.00	29.944 
01:30	72.7	72.7	72.7	86	68.3	0	0	---	0.00	29.939 
01:35	72.5	72.5	72.5	86	68.1	0	0	---	0.00	29.939 
01:40	72.5	72.5	72.5	86	68.1	0	1	292	0.00	29.939 
01:45	72.5	72.5	72.5	86	68.1	0	0	---	0.00	29.927 
01:50	72.5	72.5	72.5	86	68.1	0	1	292	0.00	29.927 
01:55	72.5	72.5	72.5	86	68.1	0	1	292	0.00	29.927 
02:00	72.5	72.5	72.5	86	68.1	0	0	---	0.00	29.927 
02:05	72.3	72.3	72.3	86	67.9	0	1	292	0.00	29.927 
02:10	72.3	72.3	72.3	86	67.9	0	0	---	0.00	29.927 
02:15	72.3	72.3	72.3	86	67.9	0	1	292	0.00	29.927 
02:20	72.1	72.1	72.1	86	67.7	0	0	---	0.00	29.927 
02:25	72.1	72.1	72.1	86	67.7	0	1	292	0.00	29.927 
02:30	72.1	72.1	72.1	86	67.7	0	1	292	0.00	29.929 
02:35	72.1	72.1	72.1	86	67.7	0	0	---	0.00	29.929 
02:40	72.0	72.0	72.0	86	67.6	0	1	292	0.00	29.929 
02:45	72.0	72.0	72.0	86	67.6	0	2	292	0.00	29.935 
02:50	72.0	72.0	72.0	85	67.2	0	2	292	0.00	29.935 
02:55	72.1	72.1	72.1	85	67.3	0	2	292	0.00	29.935 
03:00	72.1	72.1	72.1	85	67.3	0	1	292	0.00	29.936 
03:05	72.1	72.1	72.1	85	67.3	0	1	292	0.00	29.936 
03:10	72.1	72.1	72.1	85	67.3	0	1	292	0.00	29.936 
03:15	72.1	72.1	72.1	84	67.0	0	0	---	0.00	29.931 
03:20	72.0	72.0	72.0	84	66.9	0	0	---	0.00	29.931 
03:25	72.0	72.0	72.0	84	66.9	0	1	292	0.00	29.931 
03:30	72.0	72.0	72.0	84	66.9	0	3	292	0.00	29.926 
03:35	72.1	72.1	72.1	84	67.0	0	2	292	0.00	29.926 
03:40	72.1	72.1	72.1	83	66.6	0	1	292	0.00	29.926 
03:45	72.1	72.1	72.1	83	66.6	0	2	292	0.00	29.926 
03:50	72.1	72.1	72.1	83	66.6	0	2	292	0.00	29.926 
03:55	72.1	72.1	72.1	83	66.6	0	1	292	0.00	29.926 
04:00	72.1	72.1	72.1	84	67.0	0	1	292	0.00	29.925 
04:05	72.1	72.1	72.1	84	67.0	0	3	292	0.00	29.925 
04:10	72.1	72.1	72.1	84	67.0	0	2	292	0.00	29.925 
04:15	72.1	72.1	72.1	84	67.0	0	2	292	0.00	29.931 
04:20	72.0	72.0	72.0	84	66.9	0	2	292	0.00	29.931 
04:25	72.0	72.0	72.0	84	66.9	0	1	292	0.00	29.931 
04:30	72.0	72.0	72.0	84	66.9	0	1	292	0.00	29.939 
04:35	72.0	72.0	72.0	84	66.9	0	1	292	0.00	29.939 
04:40	72.0	72.0	72.0	84	66.9	0	1	292	0.00	29.939 
04:45	72.0	72.0	72.0	84	66.9	0	1	292	0.00	29.937 
04:50	71.8	71.8	71.8	85	67.0	0	1	292	0.00	29.937 
04:55	71.8	71.8	71.8	85	67.0	0	0	---	0.00	29.937 
05:00	71.8	71.8	71.8	85	67.0	0	1	292	0.00	29.932 
05:05	71.8	71.8	71.8	85	67.0	0	0	---	0.00	29.932 
05:10	71.8	71.8	71.8	85	67.0	0	1	292	0.00	29.932 
05:15	71.8	71.8	71.8	85	67.0	0	1	292	0.00	29.926 
05:20	71.8	71.8	71.8	85	67.0	0	1	292	0.00	29.926 
05:25	71.8	71.8	71.8	85	67.0	0	0	---	0.00	29.926 
05:30	71.8	71.8	71.8	85	67.0	0	1	292	0.00	29.925 
05:35	71.8	71.8	71.8	85	67.0	0	0	---	0.00	29.925 
05:40	71.6	71.6	71.6	85	66.8	0	1	292	0.00	29.925 
05:45	71.6	71.6	71.6	85	66.8	0	0	---	0.00	29.922 
05:50	71.6	71.6	71.6	85	66.8	0	0	---	0.00	29.922 
05:55	71.5	71.5	71.5	85	66.7	0	0	---	0.00	29.922 
06:00	71.5	71.5	71.5	86	67.1	0	1	292	0.00	29.925 
06:05	71.5	71.5	71.5	86	67.1	0	1	292	0.00	29.925 
06:10	71.5	71.5	71.5	86	67.1	0	1	292	0.00	29.925 
06:15	71.3	71.3	71.3	86	66.9	0	0	---	0.00	29.926 
06:20	71.3	71.3	71.3	86	66.9	0	0	---	0.00	29.926 
06:25	71.3	71.3	71.3	86	66.9	0	0	---	0.00	29.926 
06:30	71.1	71.1	71.1	86	66.7	0	0	---	0.00	29.925 
06:35	71.1	71.1	71.1	87	67.0	0	0	---	0.00	29.925 
06:40	70.9	70.9	70.9	87	66.8	0	0	---	0.00	29.925 
06:45	70.8	70.8	70.8	87	66.7	0	0	---	0.00	29.922 
06:50	70.6	70.6	70.6	87	66.5	0	0	---	0.00	29.922 
06:55	70.4	70.4	70.4	87	66.3	0	0	---	0.00	29.922 
07:00	70.3	70.3	70.3	87	66.2	0	0	---	0.00	29.922 
07:05	70.1	70.1	70.1	88	66.4	0	0	---	0.00	29.922 
07:10	69.9	69.9	69.9	88	66.2	0	0	---	0.00	29.922 
07:15	69.8	69.8	69.8	88	66.1	0	0	---	0.00	29.927 
07:20	69.6	69.6	69.6	88	65.9	0	0	---	0.00	29.927 
07:25	69.6	69.6	69.6	89	66.2	0	0	---	0.00	29.927 
07:30	69.6	69.6	69.6	89	66.2	0	0	---	0.00	29.921 
07:35	69.8	69.8	69.8	89	66.4	0	0	---	0.00	29.921 
07:40	69.9	69.9	69.9	90	66.8	0	0	---	0.00	29.921 
07:45	70.3	70.3	70.3	90	67.2	0	0	---	0.00	29.928 
07:50	70.6	70.6	70.6	90	67.5	0	0	---	0.00	29.928 
07:55	71.3	71.3	71.3	90	68.2	0	0	---	0.00	29.928 
08:00	71.8	71.8	71.8	89	68.4	0	0	---	0.00	29.929 
08:05	72.3	72.3	72.3	87	68.2	0	0	---	0.00	29.929 
08:10	73.0	73.0	73.0	85	68.2	0	1	292	0.00	29.929 
08:15	73.7	73.7	73.7	83	68.2	0	0	---	0.00	29.929 
08:20	74.6	74.6	74.6	80	68.0	0	1	292	0.00	29.929 
08:25	75.1	75.1	76.1	77	67.4	0	2	292	0.00	29.929 
08:30	75.3	75.3	76.3	77	67.6	0	0	---	0.00	29.931 
08:35	75.4	75.4	76.4	77	67.7	0	0	---	0.00	29.931 
08:40	75.4	75.4	76.4	77	67.7	0	0	---	0.00	29.931 
08:45	75.3	75.3	76.3	77	67.6	0	1	292	0.00	29.935 
08:50	75.1	75.1	76.1	77	67.4	0	0	---	0.00	29.935 
08:55	74.9	74.9	74.9	78	67.6	0	1	292	0.00	29.935 
09:00	74.7	74.7	74.7	78	67.4	0	1	292	0.00	29.958 
09:05	74.6	74.6	74.6	78	67.3	0	1	292	0.00	29.958 
09:10	74.7	74.7	74.7	78	67.4	0	1	292	0.00	29.958 
09:15	74.7	74.7	74.7	78	67.4	0	1	292	0.00	29.957 
09:20	74.7	74.7	74.7	77	67.0	0	2	292	0.00	29.957 
09:25	74.9	74.9	74.9	77	67.2	0	3	292	0.00	29.957 
09:30	74.9	74.9	74.9	77	67.2	0	2	292	0.00	29.965 
09:35	75.1	75.1	76.1	77	67.4	0	2	292	0.00	29.965 
09:40	74.9	74.9	74.9	78	67.6	0	2	292	0.00	29.965 
09:45	74.7	74.7	74.7	79	67.7	0	1	292	0.00	29.971 
09:50	74.7	74.7	74.7	80	68.1	0	1	292	0.00	29.971 
09:55	74.7	74.7	74.7	80	68.1	0	1	292	0.00	29.971 
10:00	74.7	74.7	74.7	80	68.1	0	1	292	0.00	29.979 
10:05	74.6	74.6	74.6	80	68.0	0	1	292	0.00	29.979 
10:10	74.6	74.6	74.6	80	68.0	0	1	292	0.00	29.979 
10:15	74.6	74.6	74.6	81	68.4	0	1	292	0.00	29.981 
10:20	74.4	74.4	74.4	81	68.2	0	1	292	0.00	29.981 
10:25	74.4	74.4	74.4	81	68.2	0	1	292	0.00	29.981 
10:30	74.4	74.4	74.4	81	68.2	0	1	292	0.00	29.991 
10:35	74.2	74.2	74.2	82	68.3	0	1	292	0.00	29.991 
10:40	74.0	74.0	74.0	82	68.1	0	1	292	0.00	29.991 
10:45	74.0	74.0	74.0	83	68.5	0	1	292	0.00	29.994 
10:50	74.0	74.0	74.0	83	68.5	0	0	---	0.00	29.994 
10:55	73.9	73.9	73.9	84	68.7	0	1	292	0.00	29.994 
11:00	73.7	73.7	73.7	85	68.9	0	1	292	0.01	29.996 
11:05	73.3	73.3	73.3	86	68.8	0	1	292	0.00	29.996 
11:10	73.0	73.0	73.0	88	69.2	0	0	---	0.00	29.996 
11:15	73.0	73.0	73.0	88	69.2	0	0	---	0.00	29.988 
11:20	72.8	72.8	72.8	89	69.4	0	1	292	0.00	29.988 
11:25	73.0	73.0	73.0	90	69.9	0	1	292	0.00	29.988 
11:30	72.8	72.8	72.8	90	69.7	0	1	292	0.00	29.996 
11:35	72.8	72.8	72.8	90	69.7	0	1	292	0.00	29.996 
11:40	73.0	73.0	73.0	90	69.9	0	1	292	0.00	29.996 
11:45	73.0	73.0	73.0	90	69.9	0	1	292	0.00	29.987 
11:50	73.2	73.2	73.2	91	70.4	0	1	292	0.00	29.987 
11:55	73.2	73.2	73.2	91	70.4	0	0	---	0.00	29.987 
12:00	73.2	73.2	73.2	90	70.1	0	1	292	0.00	29.974 
12:05	73.5	73.5	73.5	91	70.7	0	1	292	0.00	29.974 
12:10	73.7	73.7	73.7	90	70.6	0	1	292	0.00	29.974 
12:15	73.9	73.9	73.9	90	70.8	0	0	---	0.00	29.963 
12:20	74.0	74.0	74.0	89	70.5	0	1	292	0.00	29.963 
12:25	74.2	74.2	74.2	89	70.7	0	1	292	0.00	29.963 
12:30	74.2	74.2	74.2	88	70.4	0	1	292	0.00	29.964 
12:35	74.0	74.0	74.0	88	70.2	0	1	292	0.00	29.964 
12:40	73.9	73.9	73.9	88	70.1	0	3	90	0.00	29.964 
12:45	73.9	73.9	73.9	88	70.1	0	1	90	0.00	29.963 
12:50	73.9	73.9	73.9	88	70.1	0	2	90	0.00	29.963 
12:55	73.9	73.9	73.9	88	70.1	0	1	90	0.00	29.963 
13:00	73.7	73.7	73.7	88	69.9	0	1	90	0.00	29.948 
13:05	73.7	73.7	73.7	88	69.9	0	1	90	0.00	29.948 
13:10	73.5	73.5	73.5	88	69.7	0	0	---	0.00	29.948 
13:15	73.5	73.5	73.5	88	69.7	0	1	90	0.00	29.964 
13:20	73.5	73.5	73.5	88	69.7	0	2	90	0.00	29.964 
13:25	73.7	73.7	73.7	88	69.9	1	3	90	0.00	29.964 
13:30	73.9	73.9	73.9	89	70.4	0	2	90	0.00	29.949 
13:35	74.2	74.2	74.2	89	70.7	0	1	90	0.01	29.949 
13:40	74.4	74.4	74.4	89	70.9	0	1	90	0.00	29.949 
13:45	74.6	74.6	74.6	89	71.1	0	2	90	0.00	29.961 
13:50	74.7	74.7	74.7	88	70.9	0	2	90	0.00	29.961 
13:55	74.6	74.6	74.6	87	70.5	0	2	90	0.00	29.961 
14:00	74.6	74.6	74.6	87	70.5	0	2	90	0.00	29.953 
14:05	74.7	74.7	74.7	87	70.6	0	1	90	0.00	29.953 
14:10	74.9	74.9	74.9	87	70.8	0	2	90	0.00	29.953 
14:15	75.3	75.3	75.2	86	70.8	0	1	90	0.00	29.954 
14:20	75.3	75.3	75.4	85	70.5	0	2	90	0.00	29.954 
14:25	75.3	75.3	75.4	85	70.5	0	2	68	0.00	29.954 
14:30	75.3	75.3	75.4	85	70.5	0	2	315	0.00	29.956 
14:35	75.1	75.1	75.2	84	69.9	1	3	315	0.00	29.956 
14:40	75.4	75.4	75.7	84	70.2	0	1	315	0.00	29.956 
14:45	75.4	75.4	75.7	84	70.2	0	2	315	0.00	29.959 
14:50	75.3	75.3	75.6	83	69.8	0	2	270	0.00	29.959 
14:55	75.1	75.1	75.3	83	69.6	1	3	270	0.00	29.959 
15:00	74.9	74.9	74.9	83	69.4	0	2	270	0.00	29.969 
15:05	74.7	74.7	74.7	84	69.5	0	2	270	0.00	29.969 
15:10	74.7	74.7	74.7	84	69.5	0	3	248	0.00	29.969 
15:15	74.6	74.6	74.6	85	69.8	0	2	248	0.02	29.959 
15:20	74.2	74.2	74.2	86	69.7	0	1	248	0.01	29.959 
15:25	74.0	74.0	74.0	87	69.9	0	1	248	0.00	29.959 
15:30	73.9	73.9	73.9	88	70.1	0	0	---	0.00	29.962 
15:35	73.9	73.9	73.9	89	70.4	0	0	---	0.01	29.962 
15:40	73.9	73.9	73.9	89	70.4	0	1	248	0.00	29.962 
15:45	73.7	73.7	73.7	90	70.6	0	0	---	0.00	29.963 
15:50	73.7	73.7	73.7	90	70.6	0	0	---	0.00	29.963 
15:55	73.7	73.7	73.7	90	70.6	0	0	---	0.00	29.963 
16:00	73.9	73.9	73.9	91	71.1	0	0	---	0.00	29.959 
16:05	73.9	73.9	73.9	91	71.1	0	1	248	0.00	29.959 
16:10	74.0	74.0	74.0	91	71.2	0	1	248	0.00	29.959 
16:15	74.2	74.2	74.2	91	71.4	0	0	---	0.00	29.961 
16:20	74.4	74.4	74.4	91	71.6	0	2	248	0.00	29.961 
16:25	74.4	74.4	74.4	91	71.6	0	3	248	0.00	29.961 
16:30	74.6	74.6	74.6	91	71.8	0	1	248	0.00	29.977 
16:35	74.4	74.4	74.4	90	71.3	1	3	270	0.00	29.977 
16:40	74.6	74.6	74.6	90	71.5	0	2	270	0.00	29.977 
16:45	74.7	74.7	74.7	90	71.6	0	0	---	0.00	29.957 
16:50	75.1	75.1	74.3	90	72.0	0	1	270	0.00	29.957 
16:55	75.6	75.6	75.2	90	72.4	0	2	270	0.00	29.957 
17:00	76.0	76.0	76.2	89	72.5	0	1	270	0.00	29.945 
17:05	76.5	76.5	77.2	89	73.0	0	1	270	0.00	29.945 
17:10	77.4	77.4	79.1	87	73.2	0	1	270	0.00	29.945 
17:15	77.7	77.7	79.8	84	72.5	0	1	270	0.00	29.941 
17:20	77.6	77.6	79.6	83	72.0	0	1	270	0.00	29.941 
17:25	77.7	77.7	79.8	83	72.1	0	1	270	0.00	29.941 
17:30	78.1	78.1	80.5	82	72.1	0	2	270	0.00	29.943 
17:35	78.8	78.8	81.9	82	72.8	0	1	270	0.00	29.943 
17:40	79.2	79.2	82.5	79	72.1	0	2	270	0.00	29.943 
17:45	79.2	79.2	82.5	79	72.1	0	1	270	0.00	29.942 
17:50	79.2	79.2	82.5	79	72.1	0	0	---	0.00	29.942 
17:55	78.8	78.8	81.6	77	71.0	0	1	270	0.00	29.942 
18:00	78.8	78.8	81.7	78	71.3	0	1	270	0.00	29.935 
18:05	78.6	78.6	81.3	78	71.1	0	2	270	0.00	29.935 
18:10	78.6	78.6	81.3	78	71.1	0	2	270	0.00	29.935 
18:15	78.6	78.6	81.4	79	71.5	0	1	270	0.00	29.933 
18:20	78.6	78.6	81.3	78	71.1	0	2	270	0.00	29.933 
18:25	78.6	78.6	81.4	79	71.5	0	1	270	0.00	29.933 
18:30	78.6	78.6	81.4	79	71.5	0	4	112	0.00	29.929 
18:35	78.6	78.6	81.4	79	71.5	0	2	112	0.00	29.929 
18:40	78.5	78.5	81.2	79	71.4	0	3	112	0.00	29.929 
18:45	78.3	78.3	80.8	79	71.2	0	2	112	0.00	29.929 
18:50	78.3	78.3	80.8	79	71.2	0	2	112	0.00	29.929 
18:55	78.3	78.3	80.8	79	71.2	0	1	112	0.00	29.929 
19:00	78.3	78.3	80.8	79	71.2	0	0	---	0.00	29.928 
19:05	78.1	78.1	80.5	79	71.0	0	1	112	0.00	29.928 
19:10	77.9	77.9	80.1	79	70.8	0	1	112	0.00	29.928 
19:15	77.7	77.7	79.8	80	71.0	0	1	112	0.00	29.928 
19:20	77.6	77.6	79.6	80	70.9	0	1	112	0.00	29.928 
19:25	77.4	77.4	79.2	80	70.7	0	0	---	0.00	29.928 
19:30	77.0	77.0	78.5	81	70.7	0	0	---	0.00	29.931 
19:35	77.0	77.0	78.5	81	70.7	0	0	---	0.00	29.931 
19:40	76.8	76.8	78.2	82	70.9	0	0	---	0.00	29.931 
19:45	76.7	76.7	77.9	83	71.1	0	0	---	0.00	29.920 
19:50	76.7	76.7	77.9	83	71.1	0	0	---	0.00	29.920 
19:55	76.5	76.5	77.6	83	70.9	0	0	---	0.00	29.920 
20:00	76.3	76.3	77.2	84	71.1	0	0	---	0.00	29.932 
20:05	76.3	76.3	77.2	84	71.1	0	0	---	0.00	29.932 
20:10	76.1	76.1	76.8	84	70.9	0	0	---	0.00	29.932 
20:15	76.1	76.1	76.8	84	70.9	0	0	---	0.00	29.926 
20:20	76.1	76.1	76.7	85	71.2	0	0	---	0.00	29.926 
20:25	76.1	76.1	76.7	85	71.2	0	0	---	0.01	29.926 
20:30	76.0	76.0	76.5	86	71.5	0	0	---	0.00	29.917 
20:35	75.8	75.8	76.1	86	71.3	0	0	---	0.00	29.917 
20:40	75.6	75.6	75.8	86	71.1	0	0	---	0.00	29.917 
20:45	75.4	75.4	75.3	87	71.2	0	0	---	0.01	29.929 
20:50	75.3	75.3	75.0	88	71.5	0	0	---	0.00	29.929 
20:55	75.3	75.3	75.0	88	71.5	0	0	---	0.00	29.929 
21:00	75.1	75.1	74.4	89	71.6	0	1	112	0.02	29.916 
21:05	74.9	74.9	74.9	89	71.4	0	0	---	0.01	29.916 
21:10	74.7	74.7	74.7	90	71.6	0	0	---	0.00	29.916 
21:15	74.6	74.6	74.6	90	71.5	0	0	---	0.01	29.916 
21:20	74.6	74.6	74.6	91	71.8	0	0	---	0.00	29.916 
21:25	74.4	74.4	74.4	91	71.6	0	0	---	0.00	29.916 
21:30	74.2	74.2	74.2	91	71.4	0	0	---	0.01	29.933 
21:35	74.2	74.2	74.2	92	71.7	0	1	112	0.00	29.933 
21:40	74.2	74.2	74.2	92	71.7	0	0	---	0.01	29.933 
21:45	74.2	74.2	74.2	92	71.7	0	3	112	0.00	29.923 
21:50	74.2	74.2	74.2	92	71.7	1	6	90	0.00	29.923 
21:55	74.2	74.2	74.2	93	72.0	0	3	90	0.01	29.923 
22:00	74.0	74.0	74.0	93	71.8	1	3	112	0.00	29.908 
22:05	74.0	74.0	74.0	93	71.8	0	4	90	0.00	29.908 
22:10	73.9	73.9	73.9	93	71.7	0	2	90	0.00	29.908 
22:15	73.9	73.9	73.9	93	71.7	0	1	90	0.00	29.912 
22:20	73.9	73.9	73.9	93	71.7	0	0	---	0.00	29.912 
22:25	73.7	73.7	73.7	93	71.5	0	1	90	0.00	29.912 
22:30	73.5	73.5	73.5	93	71.3	0	0	---	0.00	29.913 
22:35	73.3	73.3	73.3	93	71.1	0	0	---	0.00	29.913 
22:40	73.2	73.2	73.2	93	71.0	0	0	---	0.00	29.913 
22:45	73.0	73.0	73.0	93	70.8	0	0	---	0.00	29.929 
22:50	72.5	72.5	72.5	93	70.4	0	1	90	0.00	29.929 
22:55	72.3	72.3	72.3	93	70.2	0	0	---	0.00	29.929 
23:00	72.1	72.1	72.1	93	70.0	0	0	---	0.00	29.936 
23:05	72.0	72.0	72.0	93	69.9	0	0	---	0.00	29.936 
23:10	72.0	72.0	72.0	93	69.9	0	0	---	0.00	29.936 
23:15	71.8	71.8	71.8	93	69.7	0	0	---	0.00	29.940 
23:20	71.6	71.6	71.6	93	69.5	0	0	---	0.00	29.940 
23:25	71.6	71.6	71.6	93	69.5	0	0	---	0.00	29.940 
23:30	71.5	71.5	71.5	93	69.4	0	1	90	0.00	29.943 
23:35	71.3	71.3	71.3	93	69.2	0	0	---	0.00	29.943 
23:40	71.3	71.3	71.3	94	69.5	0	1	90	0.00	29.943 
23:45	71.1	71.1	71.1	94	69.3	0	1	90	0.00	29.941 
23:50	70.9	70.9	70.9	94	69.1	0	1	90	0.00	29.941 
23:55	70.6	70.6	70.6	93	68.5	0	0	---	0.00	29.941 

CoCoRaHS
IN-AL-39
A2 Web Hosting
Creative Commons License
GoDaddy
search engine by freefind advanced

loaded 2018-11-17 22:35:37 • last modified 2010-11-18 10:43:29
Privacy PolicyDisclaimer
• wx.awcolley.com is powered by PmWiki v.2002016 •
• all content (unless otherwise noted) © 2018 A W Colley